N5LOC Weather Reports


time (UTC)temp
C
wind
direction
speed
KPH
gust
KPH
rain 1hr
cm
rain 24hr
cm
rain mn
cm
humidity
%
barometer
mb
20260509063021 21 265 0.0 6.4 0.00 0.03 0.00 89 1011.3
20260509060020 21 152 0.0 0.0 0.00 0.03 0.00 87 1011.8
20260509053022 21 13 0.0 1.6 0.00 0.03 0.00 86 1012.2
20260509050031 21 5 0.0 4.8 0.00 0.03 0.00 85 1011.1
20260509043020 22 195 1.6 9.7 0.00 0.03 0.03 83 1010.9
20260509040022 22 66 0.0 0.0 0.00 0.03 0.03 82 1012.0
20260509033022 22 142 0.0 0.0 0.00 0.03 0.03 82 1011.6
20260509030019 22 155 0.0 3.2 0.00 0.03 0.03 82 1011.1
20260509023020 22 160 1.6 4.8 0.00 0.03 0.03 81 1010.4
20260509020023 22 272 1.6 6.4 0.00 0.03 0.03 80 1010.3
20260509013024 22 152 0.0 1.6 0.00 0.03 0.03 80 1010.0
20260509010019 22 163 0.0 8.0 0.00 0.03 0.03 79 1009.7
20260509003020 23 235 4.8 9.7 0.00 0.03 0.03 77 1009.3
20260509000022 23 110 1.6 9.7 0.00 0.03 0.03 75 1009.7
20260508233023 24 144 3.2 9.7 0.00 0.03 0.03 71 1009.9
20260508230025 24 133 1.6 9.7 0.00 0.03 0.03 72 1010.1
20260508223020 25 215 4.8 12.9 0.00 0.03 0.03 70 1009.8
20260508220022 25 123 3.2 12.9 0.00 0.03 0.03 71 1009.8
20260508213021 25 84 4.8 9.7 0.00 0.03 0.03 72 1009.5
20260508210020 23 214 1.6 8.0 0.00 0.03 0.03 75 1011.0
20260508203020 23 198 1.6 9.7 0.00 0.03 0.03 71 1011.8
20260508200023 25 222 4.8 11.3 0.00 0.03 0.03 67 1011.8
20260508193022 26 88 3.2 14.5 0.00 0.03 0.03 65 1011.9
20260508190026 26 105 4.8 11.3 0.00 0.03 0.03 66 1012.2
20260508183026 25 105 1.6 8.0 0.00 0.03 0.03 66 1012.6
20260508180025 25 165 1.6 12.9 0.00 0.03 0.03 66 1013.1
20260508173031 23 75 6.4 12.9 0.00 0.03 0.03 67 1013.6
20260508170019 23 198 3.2 11.3 0.00 0.03 0.03 69 1014.3
20260508163021 22 340 1.6 9.7 0.00 0.03 0.03 70 1014.8
20260508160019 22 127 1.6 16.1 0.00 0.03 0.03 70 1015.1
20260508153020 20 147 1.6 9.7 0.00 0.03 0.03 72 1015.3
20260508150022 21 82 3.2 11.3 0.00 0.03 0.03 71 1015.3
20260508143032 20 204 3.2 8.0 0.00 0.03 0.03 74 1015.5
20260508140024 19 160 1.6 4.8 0.00 0.03 0.03 76 1015.8
20260508133048 17 150 0.0 4.8 0.00 0.03 0.03 84 1015.8